Total_Precipitation_Accumulation
1.91 2.37 2.93 3.78 4.88 5.86 6.17 5.70 5.25 5.00 4.65 4.30 3.73 3.45 3.58 3.52 3.29 2.93 2.57 2.52 2.43 2.52 2.84 2.59 2.82 2.66 2.82 2.96 3.07 3.28 3.32 3.19 3.30 3.51 3.47 3.06 2.67 2.63 2.54 2.65 2.94 2.82 2.76
2.13 2.83 3.85 4.42 4.71 4.88 4.64 4.34 4.17 4.03 3.55 3.31 3.26 3.10 3.16 2.90 2.75 2.64 2.74 2.33 2.18 2.28 2.30 2.70 2.69 2.72 3.00 2.99 2.99 3.21 3.16 3.02 3.12 3.44 3.72 3.38 3.12 2.64 2.05 2.24 2.32 2.45 2.75
2.32 3.13 3.72 3.85 3.60 3.27 3.14 3.12 3.26 3.08 2.99 3.09 3.06 3.01 3.11 2.80 2.62 2.60 2.73 2.32 2.00 1.99 2.12 2.30 2.53 2.78 2.68 2.89 3.00 2.91 3.07 3.15 3.08 3.10 3.62 3.61 3.33 2.86 2.28 2.03 2.15 2.37 2.70
1.86 2.30 2.58 2.46 2.56 2.68 2.70 2.84 2.97 2.77 2.82 2.87 2.66 2.59 2.54 2.43 2.42 2.48 2.58 2.59 2.13 1.94 1.95 2.06 2.29 2.53 2.43 2.75 2.53 2.74 3.15 3.20 2.97 2.92 2.90 2.98 3.13 3.18 2.75 2.31 2.06 2.16 2.35
1.33 1.47 1.57 1.68 1.87 2.00 2.17 2.45 2.75 2.77 2.67 2.56 2.55 2.60 2.44 2.45 2.44 2.46 2.56 2.66 2.43 2.13 1.89 2.00 2.24 2.38 2.35 2.44 2.51 2.92 2.96 2.94 2.93 2.93 2.96 2.94 2.91 2.81 2.78 2.57 2.26 2.06 1.85
1.19 1.29 1.29 1.39 1.57 1.71 1.93 2.19 2.58 2.74 2.71 2.55 2.48 2.50 2.56 2.57 2.51 2.55 2.54 2.36 2.33 2.28 2.07 2.07 2.26 2.25 2.27 2.33 2.42 2.71 2.72 2.90 3.06 3.07 2.94 3.03 2.87 2.75 2.92 2.55 2.22 2.06 1.56
1.11 1.29 1.31 1.29 1.36 1.51 1.64 1.75 2.04 2.36 2.52 2.48 2.46 2.45 2.63 2.55 2.33 2.25 2.23 2.20 1.98 1.93 2.00 2.08 2.27 2.17 2.17 2.27 2.57 2.71 2.68 2.85 2.91 2.85 2.79 2.82 2.56 2.60 2.74 2.56 2.08 1.93 1.57
1.03 1.15 1.21 1.17 1.24 1.30 1.46 1.62 1.95 2.14 2.32 2.37 2.38 2.40 2.47 2.36 2.19 2.23 2.04 2.03 1.94 1.85 1.93 2.03 2.03 2.03 2.11 2.16 2.62 2.50 2.57 2.75 2.67 2.47 2.80 2.67 2.32 2.54 2.66 2.68 2.80 2.40 2.03
0.86 0.97 1.02 1.18 1.26 1.24 1.38 1.53 1.82 2.19 2.41 2.53 2.60 2.55 2.52 2.49 2.43 2.36 2.13 1.93 2.06 1.94 2.03 2.10 2.09 2.11 2.30 2.46 2.70 2.52 2.56 2.73 2.53 2.52 2.80 2.62 2.37 2.46 2.52 2.72 3.03 3.09 2.62
0.86 1.06 1.25 1.35 1.24 1.12 1.22 1.36 1.66 2.15 2.44 2.63 2.60 2.45 2.64 2.53 2.49 2.40 2.19 2.01 2.01 2.06 2.20 2.34 2.31 2.37 2.40 2.51 2.66 2.45 2.57 2.63 2.51 2.61 2.82 2.77 2.58 2.66 2.62 2.72 2.95 3.18 3.06
0.88 1.12 1.41 1.46 1.27 1.10 1.06 1.22 1.59 1.93 2.20 2.40 2.49 2.35 2.30 2.24 2.25 2.26 2.19 2.14 2.15 2.13 2.16 2.28 2.34 2.30 2.34 2.46 2.59 2.37 2.46 2.47 2.51 2.53 2.67 2.75 2.99 2.99 2.91 3.03 3.07 3.12 3.19
0.98 1.04 1.21 1.37 1.29 1.21 1.17 1.36 1.66 1.84 1.97 2.09 2.14 2.12 2.12 2.11 2.05 1.99 2.06 2.14 2.06 1.97 2.04 2.11 2.13 2.06 2.19 2.40 2.40 2.27 2.36 2.44 2.42 2.62 2.90 2.83 2.97 3.03 3.10 3.25 3.02 3.07 3.41
0.84 0.89 1.03 1.17 1.27 1.24 1.26 1.48 1.73 1.80 1.84 1.81 1.87 1.87 1.90 1.89 1.85 1.85 1.94 2.04 2.06 2.05 2.07 2.09 2.03 2.01 2.09 2.23 2.22 2.38 2.48 2.50 2.56 2.75 2.88 3.00 3.34 3.12 3.16 3.14 3.00 3.02 3.26
0.86 0.88 0.97 1.18 1.25 1.30 1.32 1.39 1.59 1.76 1.73 1.69 1.81 1.95 2.04 2.09 2.07 1.99 2.04 2.16 2.29 2.28 2.34 2.33 2.33 2.37 2.32 2.30 2.37 2.53 2.63 2.65 2.67 2.84 2.92 3.00 3.18 3.26 3.44 3.39 3.40 3.54 3.70
0.87 0.87 0.95 1.13 1.28 1.45 1.52 1.52 1.56 1.64 1.79 1.95 2.07 2.34 2.52 2.52 2.38 2.32 2.39 2.42 2.50 2.43 2.62 2.63 2.62 2.72 2.68 2.46 2.64 2.76 2.75 2.97 2.91 2.97 2.92 2.92 3.15 3.30 3.46 3.24 3.42 3.79 3.94
0.87 0.83 0.92 1.13 1.20 1.27 1.38 1.43 1.50 1.60 1.70 1.82 1.99 2.26 2.52 2.67 2.61 2.61 2.76 2.78 2.73 2.81 2.93 2.89 2.86 2.83 2.48 2.70 2.89 2.94 3.03 3.14 3.08 3.02 3.04 3.01 3.03 2.96 2.95 2.96 3.12 3.40 3.56
0.91 0.90 0.88 1.00 1.23 1.20 1.23 1.38 1.49 1.67 1.86 2.13 2.35 2.49 2.72 2.88 2.82 2.70 2.71 2.74 2.79 2.78 2.85 2.90 2.98 2.79 2.74 2.88 2.71 2.76 2.75 2.84 2.93 2.98 3.03 2.78 2.63 2.83 2.61 2.75 2.85 2.79 2.82
1.20 1.24 1.28 1.28 1.38 1.36 1.38 1.48 1.64 1.85 1.97 2.10 2.33 2.51 2.72 2.82 2.89 2.91 2.84 2.92 3.04 3.07 3.10 3.10 3.10 3.00 2.81 2.80 2.59 2.69 2.56 2.57 2.62 2.69 2.77 2.75 2.64 2.64 2.74 2.73 2.59 2.32 2.24
1.28 1.39 1.45 1.49 1.50 1.58 1.73 1.92 2.00 2.19 2.36 2.48 2.66 2.75 2.78 2.84 2.88 2.93 3.06 3.18 3.30 3.31 3.34 3.32 3.29 3.23 3.17 3.14 2.79 2.72 2.52 2.56 2.57 2.65 2.69 2.66 2.49 2.65 2.60 2.52 2.44 2.29 2.10
1.40 1.48 1.52 1.57 1.78 1.84 1.91 2.10 2.33 2.50 2.69 2.86 2.96 3.03 3.08 3.09 3.05 3.06 3.18 3.27 3.34 3.37 3.40 3.28 3.28 3.20 3.13 3.25 2.98 2.79 2.51 2.52 2.57 2.71 2.76 2.75 2.53 2.60 2.55 2.41 2.41 2.25 2.15
1.61 1.64 1.69 1.79 1.93 2.00 2.07 2.25 2.53 2.78 2.99 3.03 3.08 3.14 3.25 3.42 3.55 3.58 3.40 3.26 3.27 3.37 3.42 3.36 3.38 3.34 3.26 3.25 2.89 2.73 2.58 2.61 2.66 2.63 2.61 2.66 2.69 2.43 2.27 2.16 2.10 2.16 2.30
1.79 1.82 1.86 1.90 1.95 2.08 2.22 2.33 2.58 2.73 2.93 2.96 3.09 3.18 3.24 3.18 3.20 3.50 3.60 3.57 3.46 3.33 3.31 3.35 3.26 3.14 3.09 2.92 2.59 2.38 2.37 2.46 2.47 2.48 2.51 2.57 2.60 2.29 2.04 1.81 1.74 1.86 1.93
1.76 1.76 1.82 1.96 1.95 1.98 2.18 2.46 2.54 2.62 2.67 2.79 2.93 3.15 3.26 3.33 3.31 3.32 3.43 3.45 3.37 3.16 2.93 2.94 2.98 2.95 2.95 2.84 2.53 2.23 2.14 2.19 2.11 2.18 2.45 2.50 2.36 2.15 1.97 1.84 1.79 1.72 1.65
1.73 1.78 1.74 1.78 1.89 2.00 2.19 2.30 2.35 2.51 2.76 2.88 2.92 3.00 3.09 3.14 3.23 3.32 3.30 3.25 3.22 3.14 2.96 2.93 2.94 2.93 2.86 2.64 2.34 2.16 2.07 2.04 2.00 2.10 2.34 2.43 2.41 2.25 2.09 1.97 1.81 1.62 1.59
1.64 1.73 1.83 1.87 1.93 2.01 2.18 2.34 2.39 2.45 2.60 2.70 2.68 2.76 2.92 3.01 3.09 3.23 3.30 3.15 3.04 3.06 2.94 2.97 3.12 3.02 2.76 2.55 2.38 2.11 2.02 2.02 2.11 2.19 2.28 2.43 2.46 2.43 2.33 2.14 2.01 1.88 1.74
1.61 1.76 1.84 1.93 1.98 2.03 2.12 2.19 2.28 2.41 2.55 2.63 2.67 2.66 2.70 2.84 2.94 2.91 2.97 3.01 2.76 2.68 2.51 2.54 2.61 2.60 2.48 2.36 2.27 2.14 2.07 2.04 2.10 2.08 2.14 2.41 2.48 2.49 2.46 2.33 2.15 1.99 1.86